GOES 1 (SMS-C) 1 08366U 75100A 21017.49787317 .00000024 00000-0 00000-0 0 9999 2 08366 9.4834 302.2926 0003423 343.1955 248.4121 1.00240782165243 GOES 2 1 10061U 77048A 21017.56291038 .00000049 00000-0 00000-0 0 9992 2 10061 10.9722 312.7237 0015816 6.2101 248.1795 0.99393973 26621 GOES 3 1 10953U 78062A 21017.63143760 -.00000155 00000-0 00000-0 0 9994 2 10953 11.2479 316.8589 0002868 30.1586 173.0730 0.99365242108898 GOES 4 1 11964U 80074A 21017.70597019 -.00000280 00000-0 00000+0 0 9999 2 11964 12.1571 320.6354 0034715 52.4558 125.0677 0.99231456108019 GOES 5 1 12472U 81049A 21017.50576990 -.00000010 00000-0 00000-0 0 9992 2 12472 12.7953 331.5324 0002924 350.6927 217.8261 1.00209843103025 GOES 6 1 14050U 83041A 21017.52793280 -.00000004 00000-0 00000-0 0 9998 2 14050 13.2524 336.6743 0002204 53.7017 155.8874 1.00226364196190 GOES 7 1 17561U 87022A 21017.59745611 .00000091 00000-0 00000-0 0 9998 2 17561 14.6430 352.9862 0007346 13.9052 184.1361 0.99896709107217 GOES 8 1 23051U 94022A 21017.18660576 -.00000084 00000-0 00000-0 0 9991 2 23051 12.7307 27.9437 0007525 329.2421 210.3564 0.98905755104573 GOES 9 1 23581U 95025A 21017.41809444 -.00000212 00000-0 00000-0 0 9991 2 23581 12.2192 28.0193 0003069 38.1209 324.7096 0.98800560 93236 GOES 10 1 24786U 97019A 21017.49155087 -.00000072 00000-0 00000-0 0 9993 2 24786 10.8412 33.8432 0025741 196.0392 337.9401 0.99121875 86471 GOES 11 1 26352U 00022A 21017.50005861 -.00000136 00000-0 00000-0 0 9999 2 26352 7.6049 63.3223 0003747 239.6436 284.4450 0.99041612 32890 GOES 12 1 26871U 01031A 21017.24493990 -.00000019 00000-0 00000-0 0 9991 2 26871 8.6059 51.4571 0008560 284.2622 257.5045 0.99138041 71160 GOES 13 1 29155U 06018A 21017.61004564 .00000035 00000-0 00000-0 0 9992 2 29155 0.3655 104.2268 0006395 131.2488 162.8339 1.00273895 23547 GOES 14 1 35491U 09033A 21017.62355429 -.00000095 00000-0 00000-0 0 9999 2 35491 0.0932 237.2319 0012230 349.2694 10.9817 1.00271790 42302 GOES 15 1 36411U 10008A 21017.49458715 .00000051 00000-0 00000-0 0 9994 2 36411 0.3946 98.8470 0002217 319.8420 108.4633 1.00278457 39858 GOES 16 1 41866U 16071A 21017.49713189 -.00000250 00000-0 00000-0 0 9991 2 41866 0.0444 220.6165 0001300 106.1068 254.1456 1.00270188 15298